VA5EVR-13 Weather Reports


Display with metric or nautical units.
time (UTC)temp
F
wind
direction
speed
MPH
gust
MPH
rain 1hr
in
rain 24hr
in
rain mn
in
humidity
%
barometer
mb
20260505173011 39 292 21.0 21.0 0.00 0.00 0.00 47 88.8
20260505172012 39 338 15.0 15.0 0.00 0.00 0.00 51 88.8
20260505171012 38 0 15.0 15.0 0.00 0.00 0.00 50 88.8
20260505170012 38 0 19.0 19.0 0.00 0.00 0.00 51 88.8
20260505165012 38 0 14.0 14.0 0.00 0.00 0.00 50 88.8
20260505164012 37 315 18.0 18.0 0.00 0.00 0.00 51 88.8
20260505163012 36 338 12.0 12.0 0.00 0.00 0.00 52 88.8
20260505162011 36 0 14.0 14.0 0.00 0.00 0.00 53 88.8
20260505161012 36 338 19.0 19.0 0.00 0.00 0.00 52 88.8
20260505153011 36 338 19.0 19.0 0.00 0.00 0.00 56 88.8
20260505152011 36 315 16.0 16.0 0.00 0.00 0.00 57 88.8
20260505151012 37 22 16.0 16.0 0.00 0.00 0.00 60 88.8
20260505125012 24 0 10.0 10.0 0.00 0.00 0.00 93 88.8
20260505124012 24 338 9.0 9.0 0.00 0.00 0.00 94 88.8
20260505123011 24 315 7.0 7.0 0.00 0.00 0.00 96 88.8
20260505122012 24 292 9.0 9.0 0.00 0.00 0.00 96 88.8
20260505121012 24 338 8.0 8.0 0.00 0.00 0.00 97 88.8
20260505120012 24 315 8.0 8.0 0.00 0.00 0.00 98 88.8
20260505115012 24 0 7.0 7.0 0.00 0.00 0.00 99 88.8
20260505114011 24 315 7.0 7.0 0.00 0.00 0.00 99 88.8
20260505113011 24 338 8.0 8.0 0.00 0.00 0.00 99 88.8
20260505112012 24 315 8.0 8.0 0.00 0.00 0.00 99 88.8
20260505111012 24 338 7.0 7.0 0.00 0.00 0.00 99 88.8
20260505102012 24 338 8.0 8.0 0.00 0.00 0.00 96 88.8
20260505101012 24 292 7.0 7.0 0.00 0.00 0.00 96 88.8
20260505100011 24 292 6.0 6.0 0.00 0.00 0.00 95 88.8
20260505095012 24 338 7.0 7.0 0.00 0.00 0.00 94 88.8
20260505094011 24 292 6.0 6.0 0.00 0.00 0.00 93 88.8
20260505093012 24 292 7.0 7.0 0.00 0.00 0.00 92 88.8
20260505092013 24 338 8.0 8.0 0.00 0.00 0.00 91 88.8
20260505091012 24 338 7.0 7.0 0.00 0.00 0.00 89 88.8
20260505085012 24 22 7.0 7.0 0.00 0.00 0.00 88 88.8
20260505084012 24 315 6.0 6.0 0.00 0.00 0.00 88 88.8
20260505083011 24 292 7.0 7.0 0.00 0.00 0.00 87 88.8
20260505082012 24 338 5.0 5.0 0.00 0.00 0.00 87 88.8
20260505081012 24 22 5.0 5.0 0.00 0.00 0.00 86 88.8
20260505080011 24 292 7.0 7.0 0.00 0.00 0.00 85 88.8
20260505075012 25 315 7.0 7.0 0.00 0.00 0.00 84 88.8
20260505074011 25 338 5.0 5.0 0.00 0.00 0.00 83 88.8
20260505073011 25 338 9.0 9.0 0.00 0.00 0.00 82 88.8
20260505072012 26 292 6.0 6.0 0.00 0.00 0.00 81 88.8
20260505071011 27 338 8.0 8.0 0.00 0.00 0.00 80 88.8
20260505070013 28 315 8.0 8.0 0.00 0.00 0.00 79 88.8
20260505065011 28 338 9.0 9.0 0.00 0.00 0.00 78 88.8
20260505064012 28 0 7.0 7.0 0.00 0.00 0.00 77 88.8
20260505063013 29 22 9.0 9.0 0.00 0.00 0.00 76 88.8
20260505062012 30 0 11.0 11.0 0.00 0.00 0.00 73 88.8
20260505061011 32 22 11.0 11.0 0.00 0.00 0.00 71 88.8
20260505060013 33 22 16.0 16.0 0.00 0.00 0.00 70 88.8
20260505055011 33 22 14.0 14.0 0.00 0.00 0.00 69 88.8
20260505052011 34 22 14.0 14.0 0.00 0.00 0.00 70 88.8
20260505051012 34 22 18.0 18.0 0.00 0.00 0.00 70 88.8
20260505041012 35 0 13.0 13.0 0.00 0.00 0.00 70 88.8
20260505040011 35 45 13.0 13.0 0.00 0.00 0.00 71 88.8
20260505035011 35 0 13.0 13.0 0.00 0.00 0.00 72 88.8
20260505034012 35 0 16.0 16.0 0.00 0.00 0.00 71 88.8
20260505033013 36 22 10.0 10.0 0.00 0.00 0.00 70 88.8
20260505032011 36 0 18.0 18.0 0.00 0.00 0.00 69 88.8
20260505031012 36 22 14.0 14.0 0.00 0.00 0.00 69 88.8
20260505030012 36 0 16.0 16.0 0.00 0.00 0.00 70 88.8
20260505025013 36 0 11.0 11.0 0.00 0.00 0.00 71 88.8
20260505024011 36 338 11.0 11.0 0.00 0.00 0.00 70 88.8
20260505023012 36 0 16.0 16.0 0.00 0.00 0.00 70 88.8
20260505022012 36 338 17.0 17.0 0.00 0.00 0.00 70 88.8
20260505021012 36 0 18.0 18.0 0.00 0.00 0.00 70 88.8
20260505020011 36 0 17.0 17.0 0.00 0.00 0.00 69 88.8
20260505015012 36 315 14.0 14.0 0.00 0.00 0.00 69 88.8
20260505014011 36 0 16.0 16.0 0.00 0.00 0.00 69 88.8
20260505013012 37 0 19.0 19.0 0.00 0.00 0.00 69 88.8
20260505012012 37 0 20.0 20.0 0.00 0.00 0.00 68 88.8
20260505011012 37 22 19.0 19.0 0.00 0.00 0.00 68 88.8
20260505010011 37 338 16.0 16.0 0.00 0.00 0.00 68 88.8
20260505005011 37 338 19.0 19.0 0.00 0.00 0.00 68 88.8
20260505004011 38 22 11.0 11.0 0.00 0.00 0.00 68 88.8
20260505003011 38 338 19.0 19.0 0.00 0.00 0.00 67 88.8
20260505002012 38 338 14.0 14.0 0.00 0.00 0.00 67 88.8
20260505001012 38 0 21.0 21.0 0.00 0.00 0.00 67 88.8
20260505000012 38 0 21.0 21.0 0.00 0.00 0.00 67 88.8
20260504235012 38 0 17.0 17.0 0.00 0.00 0.00 67 88.8
20260504234012 38 0 19.0 19.0 0.00 0.00 0.00 67 88.8
20260504233012 38 0 21.0 21.0 0.00 0.00 0.00 67 88.8
20260504232012 39 315 15.0 15.0 0.00 0.00 0.00 67 88.8
20260504231012 39 315 12.0 12.0 0.00 0.00 0.00 67 88.8
20260504230011 39 0 20.0 20.0 0.00 0.00 0.00 67 88.8
20260504225011 39 0 16.0 16.0 0.00 0.00 0.00 67 88.8
20260504224012 39 0 17.0 17.0 0.00 0.00 0.00 67 88.8
20260504223012 39 338 16.0 16.0 0.00 0.00 0.00 67 88.8
20260504222012 39 22 19.0 19.0 0.00 0.00 0.00 67 88.8
20260504221012 40 0 15.0 15.0 0.00 0.00 0.00 66 88.8
20260504220012 40 0 18.0 18.0 0.00 0.00 0.00 66 88.8
20260504215011 40 338 18.0 18.0 0.00 0.00 0.00 66 88.8
20260504214011 39 338 17.0 17.0 0.00 0.00 0.00 66 88.8
20260504213012 39 338 21.0 21.0 0.00 0.00 0.00 67 88.8
20260504212011 39 0 14.0 14.0 0.00 0.00 0.00 67 88.8
20260504211012 39 22 20.0 20.0 0.00 0.00 0.00 67 88.8
20260504210012 40 0 18.0 18.0 0.00 0.00 0.00 66 88.8
20260504205011 40 22 27.0 27.0 0.00 0.00 0.00 66 88.8
20260504204012 40 338 16.0 16.0 0.00 0.00 0.00 67 88.8
20260504203011 39 338 17.0 17.0 0.00 0.00 0.00 67 88.8
20260504202011 39 22 18.0 18.0 0.00 0.00 0.00 67 88.8
20260504201012 39 22 12.0 12.0 0.00 0.00 0.00 66 88.8
20260504200011 39 22 16.0 16.0 0.00 0.00 0.00 67 88.8
20260504195012 39 338 12.0 12.0 0.00 0.00 0.00 65 88.8
20260504194012 40 0 18.0 18.0 0.00 0.00 0.00 65 88.8
20260504193012 40 338 22.0 22.0 0.00 0.00 0.00 65 88.8
20260504191012 40 22 18.0 18.0 0.00 0.00 0.00 64 88.8
20260504190011 40 338 13.0 13.0 0.00 0.00 0.00 65 88.8
20260504185012 40 338 15.0 15.0 0.00 0.00 0.00 65 88.8
20260504184012 39 292 24.0 24.0 0.00 0.00 0.00 67 88.8
20260504182012 38 338 16.0 16.0 0.00 0.00 0.00 69 88.8
20260504181011 38 22 18.0 18.0 0.00 0.00 0.00 68 88.8
20260504180011 38 338 12.0 12.0 0.00 0.00 0.00 69 88.8
20260504175012 38 338 22.0 22.0 0.00 0.00 0.00 70 88.8
20260504174012 38 0 14.0 14.0 0.00 0.00 0.00 70 88.8